Amarillo, TX

4:24 AM CDT on July 17, 2019 (GMT -0500)
Amarillo International

Weather History for KAMA - May, 2019

Change the Weather History Date:

Tuesday, May 28, 2019

  Actual Average Record
Temperature  
Mean Temperature 66 °F 69 °F  
Max Temperature 78 °F 83 °F 100 °F (2011)
Min Temperature 53 °F 56 °F 39 °F (1992)
Degree Days  
Heating Degree Days 0 1  
Month to date heating degree days 111 80  
Since 1 July heating degree days 4094 4168  
Cooling Degree Days 1 5  
Month to date cooling degree days 45 86  
Year to date cooling degree days 61 107  
Growing Degree Days 15 (Base 50)    
Moisture  
Dew Point 41 °F    
Average Humidity 56    
Maximum Humidity 93    
Minimum Humidity 19    
Precipitation  
Precipitation 0.00 in 0.10 in 1.64 in (1911)
Month to date precipitation 3.35 1.97  
Year to date precipitation 7.44 6.04  
Snow  
Snow 0.00 in 0.00 in T in (2013)
Month to date snowfall 0.0 0.2  
Since 1 July snowfall 8.1 17.8  
Snow Depth 0.00 in    
Sea Level Pressure  
Sea Level Pressure 29.58 in    
Wind  
Wind Speed 14 mph (SW)    
Max Wind Speed 32 mph    
Max Gust Speed 41 mph    
Visibility 10 miles    
Events      
T = Trace of Precipitation, MM = Missing Value Source: NWS Daily Summary

Daily Weather History Graph

Daily Weather History Graph

Search for Another Location

Airport or City:

Astronomy

May. 28, 2019 Rise Set
Actual Time 6:35 AM CDT 8:53 PM CDT
Civil Twilight 6:06 AM CDT 9:22 PM CDT
Nautical Twilight 5:30 AM CDT 9:58 PM CDT
Astronomical Twilight 4:51 AM CDT 10:37 PM CDT
Moon 3:31 AM CDT (5/28) 3:20 PM CDT (5/28)
Length of Visible Light 15h 16m
Length of Day
14h 18m
Waning Crescent, 31% of the Moon is Illuminated
May 28
Waning Crescent
Jun 3
New
Jun 10
First Quarter
Jun 17
Full
Jun 25
Last Quarter

Hourly Weather History & Observations

Time (CDT) Temp. Dew Point Humidity Pressure Visibility Wind Dir Wind Speed Gust Speed Precip Events Conditions
12:53 AM 71.1 °F 64.0 °F 78% 29.54 in 10.0 mi South 19.6 mph - N/A   Clear
1:53 AM 69.1 °F 64.0 °F 84% 29.55 in 10.0 mi SSW 13.8 mph - N/A   Clear
2:53 AM 68.0 °F 63.0 °F 84% 29.53 in 10.0 mi South 12.7 mph - N/A   Clear
3:53 AM 63.0 °F 61.0 °F 93% 29.54 in 9.0 mi SSW 6.9 mph - N/A   Clear
4:53 AM 62.1 °F 59.0 °F 90% 29.54 in 9.0 mi SSW 10.4 mph - N/A   Partly Cloudy
5:53 AM 53.1 °F 45.0 °F 74% 29.57 in 10.0 mi WSW 9.2 mph - N/A   Clear
6:53 AM 55.9 °F 37.0 °F 49% 29.57 in 10.0 mi West 5.8 mph - N/A   Clear
7:53 AM 60.1 °F 43.0 °F 53% 29.58 in 10.0 mi WSW 8.1 mph - N/A   Clear
8:53 AM 68.0 °F 34.0 °F 28% 29.57 in 10.0 mi West 16.1 mph - N/A   Clear
9:53 AM 71.1 °F 36.0 °F 28% 29.59 in 10.0 mi West 16.1 mph - N/A   Clear
10:53 AM 73.0 °F 33.1 °F 23% 29.59 in 10.0 mi WSW 16.1 mph 28.8 mph N/A   Clear
11:53 AM 73.9 °F 33.1 °F 22% 29.59 in 10.0 mi WSW 20.7 mph 32.2 mph N/A   Clear
12:53 PM 75.0 °F 35.1 °F 23% 29.59 in 10.0 mi WSW 24.2 mph 32.2 mph N/A   Clear
1:53 PM 75.9 °F 37.0 °F 24% 29.57 in 10.0 mi WSW 21.9 mph 31.1 mph N/A   Clear
2:53 PM 77.0 °F 34.0 °F 21% 29.56 in 10.0 mi WSW 26.5 mph 34.5 mph N/A   Clear
3:53 PM 73.9 °F 30.0 °F 20% 29.57 in 10.0 mi WSW 28.8 mph 39.1 mph N/A   Clear
4:53 PM 73.9 °F 33.1 °F 22% 29.57 in 10.0 mi SW 19.6 mph 32.2 mph N/A   Clear
5:53 PM 77.0 °F 32.0 °F 19% 29.59 in 10.0 mi SW 19.6 mph 29.9 mph N/A   Clear
6:53 PM 73.9 °F 28.0 °F 18% 29.59 in 10.0 mi SW 17.3 mph 26.5 mph N/A   Clear
7:53 PM 72.0 °F 35.1 °F 26% 29.60 in 10.0 mi SW 12.7 mph - N/A   Clear
8:53 PM 66.9 °F 35.1 °F 31% 29.62 in 10.0 mi SSW 5.8 mph - N/A   Clear
9:53 PM 64.0 °F 32.0 °F 30% 29.64 in 10.0 mi SW 8.1 mph - N/A   Clear
10:53 PM 62.1 °F 33.1 °F 34% 29.65 in 10.0 mi WSW 8.1 mph - N/A   Clear
11:53 PM 64.9 °F 30.0 °F 27% 29.64 in 10.0 mi West 11.5 mph - N/A   Clear